Time,TemperatureF,DewpointF,PressureIn,WindDirection,WindDirectionDegrees,WindSpeedMPH,WindSpeedGustMPH,Humidity,HourlyPrecipIn,Conditions,Clouds,dailyrainin,SoftwareType,DateUTC
2013-09-23 00:00:00,47.4,44.0,29.90,WNW,286,0.0,13.0,88,0.00,,,0.52,Wunderground v.1.15,2013-09-23 04:00:00,
2013-09-23 00:10:00,47.1,43.7,29.90,WNW,285,0.0,0.0,88,0.00,,,0.00,Wunderground v.1.15,2013-09-23 04:10:00,
2013-09-23 00:20:00,47.1,44.0,29.90,WNW,286,0.0,0.0,89,0.00,,,0.00,Wunderground v.1.15,2013-09-23 04:20:00,
2013-09-23 00:30:00,47.0,43.9,29.90,WNW,286,0.0,0.0,89,0.00,,,0.00,Wunderground v.1.15,2013-09-23 04:30:00,
2013-09-23 00:40:00,47.0,43.9,29.90,WNW,285,0.0,0.0,89,0.00,,,0.00,Wunderground v.1.15,2013-09-23 04:40:00,
2013-09-23 00:50:00,46.8,43.7,29.90,WNW,285,0.0,0.0,89,0.00,,,0.00,Wunderground v.1.15,2013-09-23 04:50:00,
2013-09-23 01:00:00,46.7,43.3,29.91,WNW,286,0.0,0.0,88,0.00,,,0.00,Wunderground v.1.15,2013-09-23 05:00:00,
2013-09-23 01:10:00,46.7,43.3,29.91,WNW,286,0.0,0.0,88,0.00,,,0.00,Wunderground v.1.15,2013-09-23 05:10:00,
2013-09-23 01:20:00,46.7,43.0,29.92,WNW,286,0.0,0.0,87,0.00,,,0.00,Wunderground v.1.15,2013-09-23 05:20:00,
2013-09-23 01:30:00,46.7,43.0,29.92,WNW,286,0.0,0.0,87,0.00,,,0.00,Wunderground v.1.15,2013-09-23 05:30:00,
2013-09-23 01:40:00,46.7,43.3,29.92,WNW,286,0.0,0.0,88,0.00,,,0.00,Wunderground v.1.15,2013-09-23 05:40:00,
2013-09-23 01:50:00,46.7,43.6,29.92,WNW,286,0.0,0.0,89,0.00,,,0.00,Wunderground v.1.15,2013-09-23 05:50:00,
2013-09-23 02:00:00,46.4,43.3,29.92,WNW,286,0.0,0.0,89,0.00,,,0.00,Wunderground v.1.15,2013-09-23 06:00:00,
2013-09-23 02:10:00,46.0,42.9,29.92,WNW,285,0.0,0.0,89,0.00,,,0.00,Wunderground v.1.15,2013-09-23 06:10:00,
2013-09-23 02:20:00,45.1,42.1,29.92,WNW,286,0.0,0.0,89,0.00,,,0.00,Wunderground v.1.15,2013-09-23 06:20:00,
2013-09-23 02:30:00,44.1,41.4,29.92,WNW,286,0.0,0.0,90,0.00,,,0.00,Wunderground v.1.15,2013-09-23 06:30:00,
2013-09-23 02:40:00,43.6,41.1,29.92,WNW,286,0.0,0.0,91,0.00,,,0.00,Wunderground v.1.15,2013-09-23 06:40:00,
2013-09-23 02:50:00,43.3,41.1,29.92,WNW,286,0.0,0.0,92,0.00,,,0.00,Wunderground v.1.15,2013-09-23 06:50:00,
2013-09-23 03:00:00,42.8,40.9,29.92,WNW,286,0.0,0.0,93,0.00,,,0.00,Wunderground v.1.15,2013-09-23 07:00:00,
2013-09-23 03:10:00,42.8,41.2,29.92,WNW,286,0.0,0.0,94,0.00,,,0.00,Wunderground v.1.15,2013-09-23 07:10:00,
2013-09-23 03:20:00,42.8,41.2,29.92,WNW,286,0.0,0.0,94,0.00,,,0.00,Wunderground v.1.15,2013-09-23 07:20:00,
2013-09-23 03:30:00,42.6,41.0,29.92,WNW,286,0.0,0.0,94,0.00,,,0.00,Wunderground v.1.15,2013-09-23 07:30:00,
2013-09-23 03:40:00,42.2,40.6,29.92,WNW,286,0.0,0.0,94,0.00,,,0.00,Wunderground v.1.15,2013-09-23 07:40:00,
2013-09-23 03:50:00,42.3,40.7,29.92,WNW,285,0.0,0.0,94,0.00,,,0.00,Wunderground v.1.15,2013-09-23 07:50:00,
2013-09-23 04:00:00,42.1,40.2,29.92,WNW,286,0.0,0.0,93,0.00,,,0.00,Wunderground v.1.15,2013-09-23 08:00:00,
2013-09-23 04:10:00,41.6,39.7,29.92,WNW,286,0.0,0.0,93,0.00,,,0.00,Wunderground v.1.15,2013-09-23 08:10:00,
2013-09-23 04:20:00,41.5,39.9,29.92,WNW,286,0.0,0.0,94,0.00,,,0.00,Wunderground v.1.15,2013-09-23 08:20:00,
2013-09-23 04:30:00,41.1,39.8,29.93,WNW,286,0.0,0.0,95,0.00,,,0.00,Wunderground v.1.15,2013-09-23 08:30:00,
2013-09-23 04:40:00,41.2,40.1,29.93,WNW,286,0.0,0.0,96,0.00,,,0.00,Wunderground v.1.15,2013-09-23 08:40:00,
2013-09-23 04:50:00,40.9,39.8,29.93,WNW,286,0.0,0.0,96,0.00,,,0.00,Wunderground v.1.15,2013-09-23 08:50:00,
2013-09-23 05:00:00,40.6,39.8,29.93,WNW,286,0.0,0.0,97,0.00,,,0.00,Wunderground v.1.15,2013-09-23 09:00:00,
2013-09-23 05:10:00,40.2,39.4,29.93,WNW,286,0.0,0.0,97,0.00,,,0.00,Wunderground v.1.15,2013-09-23 09:10:00,
2013-09-23 05:20:00,40.3,39.5,29.94,WNW,286,0.0,0.0,97,0.00,,,0.00,Wunderground v.1.15,2013-09-23 09:20:00,
2013-09-23 05:30:00,40.3,39.8,29.94,WNW,286,0.0,0.0,98,0.00,,,0.00,Wunderground v.1.15,2013-09-23 09:30:00,
2013-09-23 05:40:00,40.2,39.7,29.94,WNW,286,0.0,0.0,98,0.00,,,0.00,Wunderground v.1.15,2013-09-23 09:40:00,
2013-09-23 05:50:00,40.3,39.8,29.94,WNW,286,0.0,0.0,98,0.00,,,0.00,Wunderground v.1.15,2013-09-23 09:50:00,
2013-09-23 05:59:00,39.9,39.4,29.95,WNW,285,0.0,0.0,98,0.00,,,0.00,Wunderground v.1.15,2013-09-23 09:59:00,
2013-09-23 06:10:00,40.1,39.8,29.95,WNW,286,0.0,0.0,99,0.00,,,0.00,Wunderground v.1.15,2013-09-23 10:10:00,
2013-09-23 06:20:00,39.8,39.3,29.95,WNW,286,0.0,0.0,98,0.00,,,0.00,Wunderground v.1.15,2013-09-23 10:20:00,
2013-09-23 06:30:00,39.3,38.8,29.97,WNW,286,0.0,0.0,98,0.00,,,0.00,Wunderground v.1.15,2013-09-23 10:30:00,
2013-09-23 06:40:00,39.8,39.5,29.97,WNW,286,0.0,0.0,99,0.00,,,0.00,Wunderground v.1.15,2013-09-23 10:40:00,